Year,Month,Day,Hour,Minute,Value (Times are PST for windgust in km/hr)
2016,08,21,00,00,1.60
2016,08,21,00,02,1.60
2016,08,21,00,53,1.60
2016,08,21,00,54,1.60
2016,08,21,00,55,1.60
2016,08,21,01,02,1.60
2016,08,21,01,03,3.20
2016,08,21,01,04,3.20
2016,08,21,01,05,1.60
2016,08,21,01,06,1.60
2016,08,21,01,14,1.60
2016,08,21,01,15,1.60
2016,08,21,01,16,3.20
2016,08,21,01,17,3.20
2016,08,21,01,18,4.80
2016,08,21,01,19,3.20
2016,08,21,01,20,4.80
2016,08,21,01,21,3.20
2016,08,21,01,22,4.80
2016,08,21,01,23,4.80
2016,08,21,01,24,3.20
2016,08,21,01,25,3.20
2016,08,21,01,26,1.60
2016,08,21,01,27,1.60
2016,08,21,01,28,1.60
2016,08,21,01,34,1.60
2016,08,21,01,35,1.60
2016,08,21,01,36,1.60
2016,08,21,01,41,1.60
2016,08,21,01,42,1.60
2016,08,21,01,43,1.60
2016,08,21,01,44,3.20
2016,08,21,01,45,3.20
2016,08,21,01,46,1.60
2016,08,21,01,47,1.60
2016,08,21,02,05,1.60
2016,08,21,02,07,1.60
2016,08,21,02,08,1.60
2016,08,21,02,09,1.60
2016,08,21,02,22,1.60
2016,08,21,02,23,1.60
2016,08,21,02,24,1.60
2016,08,21,02,29,1.60
2016,08,21,03,29,1.60
2016,08,21,03,30,1.60
2016,08,21,03,43,1.60
2016,08,21,03,51,1.60
2016,08,21,03,52,1.60
2016,08,21,03,53,1.60
2016,08,21,03,54,1.60
2016,08,21,03,55,1.60
2016,08,21,03,56,1.60
2016,08,21,04,25,1.60
2016,08,21,04,26,1.60
2016,08,21,04,28,1.60
2016,08,21,04,29,1.60
2016,08,21,04,30,1.60
2016,08,21,04,48,1.60
2016,08,21,05,05,1.60
2016,08,21,05,06,1.60
2016,08,21,05,08,3.20
2016,08,21,05,09,3.20
2016,08,21,05,10,3.20
2016,08,21,05,11,1.60
2016,08,21,05,20,1.60
2016,08,21,05,35,1.60
2016,08,21,05,38,1.60
2016,08,21,05,39,1.60
2016,08,21,05,40,1.60
2016,08,21,05,41,1.60
2016,08,21,05,43,1.60
2016,08,21,05,47,3.20
2016,08,21,05,48,3.20
2016,08,21,05,49,1.60
2016,08,21,05,50,3.20
2016,08,21,05,51,1.60
2016,08,21,05,52,3.20
2016,08,21,05,53,3.20
2016,08,21,05,54,3.20
2016,08,21,05,55,3.20
2016,08,21,05,56,3.20
2016,08,21,05,57,4.80
2016,08,21,05,58,1.60
2016,08,21,05,59,3.20
2016,08,21,06,00,3.20
2016,08,21,06,02,1.60
2016,08,21,06,03,1.60
2016,08,21,06,04,1.60
2016,08,21,06,05,6.40
2016,08,21,06,06,3.20
2016,08,21,06,07,1.60
2016,08,21,06,08,4.80
2016,08,21,06,09,4.80
2016,08,21,06,10,3.20
2016,08,21,06,11,11.30
2016,08,21,06,12,9.60
2016,08,21,06,13,6.40
2016,08,21,06,14,4.80
2016,08,21,06,15,8.10
2016,08,21,06,16,3.20
2016,08,21,06,17,1.60
2016,08,21,06,18,1.60
2016,08,21,06,19,8.10
2016,08,21,06,20,6.40
2016,08,21,06,21,1.60
2016,08,21,06,23,4.80
2016,08,21,06,24,6.40
2016,08,21,06,25,3.20
2016,08,21,06,26,9.60
2016,08,21,06,27,6.40
2016,08,21,06,28,8.10
2016,08,21,06,29,9.60
2016,08,21,06,30,6.40
2016,08,21,06,31,4.80
2016,08,21,06,32,6.40
2016,08,21,06,34,1.60
2016,08,21,06,35,4.80
2016,08,21,06,36,9.60
2016,08,21,06,37,1.60
2016,08,21,06,38,4.80
2016,08,21,06,39,3.20
2016,08,21,06,40,3.20
2016,08,21,06,41,6.40
2016,08,21,06,42,1.60
2016,08,21,06,43,1.60
2016,08,21,06,44,8.10
2016,08,21,06,45,6.40
2016,08,21,06,46,6.40
2016,08,21,06,47,8.10
2016,08,21,06,48,6.40
2016,08,21,06,49,3.20
2016,08,21,06,50,4.80
2016,08,21,06,51,3.20
2016,08,21,06,52,3.20
2016,08,21,06,53,8.10
2016,08,21,06,54,9.60
2016,08,21,06,55,6.40
2016,08,21,06,56,4.80
2016,08,21,06,57,8.10
2016,08,21,06,58,9.60
2016,08,21,06,59,9.60
2016,08,21,07,00,6.40
2016,08,21,07,01,4.80
2016,08,21,07,02,8.10
2016,08,21,07,03,12.90
2016,08,21,07,04,11.30
2016,08,21,07,05,4.80
2016,08,21,07,06,4.80
2016,08,21,07,07,6.40
2016,08,21,07,08,3.20
2016,08,21,07,09,4.80
2016,08,21,07,10,9.60
2016,08,21,07,11,9.60
2016,08,21,07,12,9.60
2016,08,21,07,13,4.80
2016,08,21,07,14,9.60
2016,08,21,07,15,6.40
2016,08,21,07,16,11.30
2016,08,21,07,17,17.70
2016,08,21,07,18,9.60
2016,08,21,07,19,6.40
2016,08,21,07,20,8.10
2016,08,21,07,21,11.30
2016,08,21,07,22,14.50
2016,08,21,07,23,9.60
2016,08,21,07,24,9.60
2016,08,21,07,25,17.70
2016,08,21,07,26,19.30
2016,08,21,07,27,17.70
2016,08,21,07,28,6.40
2016,08,21,07,29,6.40
2016,08,21,07,30,3.20
2016,08,21,07,31,8.10
2016,08,21,07,32,16.10
2016,08,21,07,33,11.30
2016,08,21,07,34,6.40
2016,08,21,07,35,8.10
2016,08,21,07,36,8.10
2016,08,21,07,37,9.60
2016,08,21,07,38,8.10
2016,08,21,07,39,12.90
2016,08,21,07,40,16.10
2016,08,21,07,41,11.30
2016,08,21,07,42,14.50
2016,08,21,07,43,16.10
2016,08,21,07,44,17.70
2016,08,21,07,45,11.30
2016,08,21,07,46,9.60
2016,08,21,07,47,14.50
2016,08,21,07,48,11.30
2016,08,21,07,49,17.70
2016,08,21,07,50,11.30
2016,08,21,07,51,12.90
2016,08,21,07,52,14.50
2016,08,21,07,53,6.40
2016,08,21,07,54,9.60
2016,08,21,07,55,8.10
2016,08,21,07,56,14.50
2016,08,21,07,57,17.70
2016,08,21,07,58,19.30
2016,08,21,07,59,11.30
2016,08,21,08,00,9.60
2016,08,21,08,01,4.80
2016,08,21,08,02,8.10
2016,08,21,08,03,6.40
2016,08,21,08,04,8.10
2016,08,21,08,05,19.30
2016,08,21,08,06,6.40
2016,08,21,08,07,16.10
2016,08,21,08,08,12.90
2016,08,21,08,09,8.10
2016,08,21,08,10,6.40
2016,08,21,08,11,17.70
2016,08,21,08,12,11.30
2016,08,21,08,13,16.10
2016,08,21,08,14,11.30
2016,08,21,08,15,8.10
2016,08,21,08,16,6.40
2016,08,21,08,17,9.60
2016,08,21,08,18,17.70
2016,08,21,08,19,11.30
2016,08,21,08,20,6.40
2016,08,21,08,21,6.40
2016,08,21,08,22,3.20
2016,08,21,08,23,8.10
2016,08,21,08,24,11.30
2016,08,21,08,25,14.50
2016,08,21,08,26,9.60
2016,08,21,08,27,9.60
2016,08,21,08,28,1.60
2016,08,21,08,29,3.20
2016,08,21,08,30,14.50
2016,08,21,08,31,19.30
2016,08,21,08,32,6.40
2016,08,21,08,33,9.60
2016,08,21,08,34,9.60
2016,08,21,08,35,8.10
2016,08,21,08,36,14.50
2016,08,21,08,37,14.50
2016,08,21,08,38,16.10
2016,08,21,08,39,20.90
2016,08,21,08,40,14.50
2016,08,21,08,41,14.50
2016,08,21,08,42,16.10
2016,08,21,08,43,16.10
2016,08,21,08,44,14.50
2016,08,21,08,45,16.10
2016,08,21,08,46,17.70
2016,08,21,08,47,20.90
2016,08,21,08,48,11.30
2016,08,21,08,49,19.30
2016,08,21,08,50,19.30
2016,08,21,08,51,19.30
2016,08,21,08,52,19.30
2016,08,21,08,53,20.90
2016,08,21,08,54,22.50
2016,08,21,08,55,8.10
2016,08,21,08,56,17.70
2016,08,21,08,57,19.30
2016,08,21,08,58,17.70
2016,08,21,08,59,16.10
2016,08,21,09,00,24.20
2016,08,21,09,01,20.90
2016,08,21,09,02,14.50
2016,08,21,09,03,4.80
2016,08,21,09,04,8.10
2016,08,21,09,05,4.80
2016,08,21,09,06,20.90
2016,08,21,09,07,11.30
2016,08,21,09,08,8.10
2016,08,21,09,09,14.50
2016,08,21,09,10,11.30
2016,08,21,09,11,11.30
2016,08,21,09,12,16.10
2016,08,21,09,13,9.60
2016,08,21,09,14,8.10
2016,08,21,09,15,9.60
2016,08,21,09,16,6.40
2016,08,21,09,17,14.50
2016,08,21,09,18,16.10
2016,08,21,09,19,16.10
2016,08,21,09,20,16.10
2016,08,21,09,21,8.10
2016,08,21,09,22,14.50
2016,08,21,09,23,8.10
2016,08,21,09,24,19.30
2016,08,21,09,25,17.70
2016,08,21,09,26,9.60
2016,08,21,09,27,11.30
2016,08,21,09,28,8.10
2016,08,21,09,29,17.70
2016,08,21,09,30,9.60
2016,08,21,09,31,4.80
2016,08,21,09,32,9.60
2016,08,21,09,33,16.10
2016,08,21,09,34,12.90
2016,08,21,09,35,8.10
2016,08,21,09,36,17.70
2016,08,21,09,37,16.10
2016,08,21,09,38,11.30
2016,08,21,09,39,9.60
2016,08,21,09,40,11.30
2016,08,21,09,41,16.10
2016,08,21,09,42,9.60
2016,08,21,09,43,19.30
2016,08,21,09,44,11.30
2016,08,21,09,45,11.30
2016,08,21,09,46,8.10
2016,08,21,09,47,9.60
2016,08,21,09,48,19.30
2016,08,21,09,49,20.90
2016,08,21,09,50,17.70
2016,08,21,09,51,14.50
2016,08,21,09,52,9.60
2016,08,21,09,53,11.30
2016,08,21,09,54,16.10
2016,08,21,09,55,9.60
2016,08,21,09,56,17.70
2016,08,21,09,57,12.90
2016,08,21,09,58,17.70
2016,08,21,09,59,9.60
2016,08,21,10,00,14.50
2016,08,21,10,01,14.50
2016,08,21,10,02,8.10
2016,08,21,10,03,20.90
2016,08,21,10,04,20.90
2016,08,21,10,05,8.10
2016,08,21,10,06,11.30
2016,08,21,10,07,22.50
2016,08,21,10,08,11.30
2016,08,21,10,09,6.40
2016,08,21,10,10,11.30
2016,08,21,10,11,3.20
2016,08,21,10,12,8.10
2016,08,21,10,13,4.80
2016,08,21,10,14,16.10
2016,08,21,10,15,14.50
2016,08,21,10,16,16.10
2016,08,21,10,17,20.90
2016,08,21,10,18,14.50
2016,08,21,10,19,4.80
2016,08,21,10,20,4.80
2016,08,21,10,21,19.30
2016,08,21,10,22,19.30
2016,08,21,10,23,16.10
2016,08,21,10,24,25.70
2016,08,21,10,25,16.10
2016,08,21,10,26,16.10
2016,08,21,10,27,24.20
2016,08,21,10,28,20.90
2016,08,21,10,29,24.20
2016,08,21,10,30,22.50
2016,08,21,10,31,17.70
2016,08,21,10,32,14.50
2016,08,21,10,33,25.70
2016,08,21,10,34,22.50
2016,08,21,10,35,11.30
2016,08,21,10,36,24.20
2016,08,21,10,37,27.40
2016,08,21,10,38,24.20
2016,08,21,10,39,11.30
2016,08,21,10,40,29.00
2016,08,21,10,41,25.70
2016,08,21,10,42,25.70
2016,08,21,10,43,32.20
2016,08,21,10,44,14.50
2016,08,21,10,45,24.20
2016,08,21,10,46,17.70
2016,08,21,10,47,16.10
2016,08,21,10,48,19.30
2016,08,21,10,49,19.30
2016,08,21,10,50,19.30
2016,08,21,10,51,17.70
2016,08,21,10,52,24.20
2016,08,21,10,53,29.00
2016,08,21,10,54,24.20
2016,08,21,10,55,8.10
2016,08,21,10,56,16.10
2016,08,21,10,57,22.50
2016,08,21,10,58,29.00
2016,08,21,10,59,22.50
2016,08,21,11,00,20.90
2016,08,21,11,01,27.40
2016,08,21,11,02,25.70
2016,08,21,11,03,22.50
2016,08,21,11,04,17.70
2016,08,21,11,05,14.50
2016,08,21,11,06,25.70
2016,08,21,11,07,25.70
2016,08,21,11,08,30.60
2016,08,21,11,09,8.10
2016,08,21,11,10,14.50
2016,08,21,11,11,17.70
2016,08,21,11,12,9.60
2016,08,21,11,13,3.20
2016,08,21,11,14,16.10
2016,08,21,11,15,17.70
2016,08,21,11,16,35.40
2016,08,21,11,17,24.20
2016,08,21,11,18,20.90
2016,08,21,11,19,27.40
2016,08,21,11,20,27.40
2016,08,21,11,21,29.00
2016,08,21,11,22,24.20
2016,08,21,11,23,20.90
2016,08,21,11,24,9.60
2016,08,21,11,25,27.40
2016,08,21,11,26,19.30
2016,08,21,11,27,19.30
2016,08,21,11,28,27.40
2016,08,21,11,29,12.90
2016,08,21,11,30,20.90
2016,08,21,11,31,25.70
2016,08,21,11,32,17.70
2016,08,21,11,33,19.30
2016,08,21,11,34,14.50
2016,08,21,11,35,24.20
2016,08,21,11,36,20.90
2016,08,21,11,37,11.30
2016,08,21,11,38,14.50
2016,08,21,11,39,20.90
2016,08,21,11,40,8.10
2016,08,21,11,41,8.10
2016,08,21,11,42,33.80
2016,08,21,11,43,25.70
2016,08,21,11,44,19.30
2016,08,21,11,45,17.70
2016,08,21,11,46,25.70
2016,08,21,11,47,17.70
2016,08,21,11,48,16.10
2016,08,21,11,49,17.70
2016,08,21,11,50,17.70
2016,08,21,11,51,25.70
2016,08,21,11,52,24.20
2016,08,21,11,53,24.20
2016,08,21,11,54,25.70
2016,08,21,11,55,17.70
2016,08,21,11,56,14.50
2016,08,21,11,57,19.30
2016,08,21,11,58,20.90
2016,08,21,11,59,27.40
2016,08,21,12,00,24.20
2016,08,21,12,01,27.40
2016,08,21,12,02,17.70
2016,08,21,12,03,32.20
2016,08,21,12,04,30.60
2016,08,21,12,05,19.30
2016,08,21,12,06,19.30
2016,08,21,12,07,27.40
2016,08,21,12,08,30.60
2016,08,21,12,09,22.50
2016,08,21,12,10,27.40
2016,08,21,12,11,12.90
2016,08,21,12,12,22.50
2016,08,21,12,13,22.50
2016,08,21,12,14,40.20
2016,08,21,12,15,32.20
2016,08,21,12,16,33.80
2016,08,21,12,17,25.70
2016,08,21,12,18,24.20
2016,08,21,12,19,32.20
2016,08,21,12,20,27.40
2016,08,21,12,21,25.70
2016,08,21,12,22,22.50
2016,08,21,12,23,25.70
2016,08,21,12,24,27.40
2016,08,21,12,25,32.20
2016,08,21,12,26,27.40
2016,08,21,12,27,27.40
2016,08,21,12,28,29.00
2016,08,21,12,29,27.40
2016,08,21,12,30,27.40
2016,08,21,12,31,20.90
2016,08,21,12,32,17.70
2016,08,21,12,33,25.70
2016,08,21,12,34,17.70
2016,08,21,12,35,30.60
2016,08,21,12,36,22.50
2016,08,21,12,37,25.70
2016,08,21,12,38,29.00
2016,08,21,12,39,27.40
2016,08,21,12,40,35.40
2016,08,21,12,41,25.70
2016,08,21,12,42,24.20
2016,08,21,12,43,20.90
2016,08,21,12,44,33.80
2016,08,21,12,45,19.30
2016,08,21,12,46,29.00
2016,08,21,12,47,37.00
2016,08,21,12,48,35.40
2016,08,21,12,49,32.20
2016,08,21,12,50,25.70
2016,08,21,12,51,19.30
2016,08,21,12,52,38.60
2016,08,21,12,53,32.20
2016,08,21,12,54,27.40
2016,08,21,12,55,29.00
2016,08,21,12,56,17.70
2016,08,21,12,57,25.70
2016,08,21,12,58,32.20
2016,08,21,12,59,29.00
2016,08,21,13,00,24.20
2016,08,21,13,01,19.30
2016,08,21,13,02,20.90
2016,08,21,13,03,29.00
2016,08,21,13,04,27.40
2016,08,21,13,05,25.70
2016,08,21,13,06,24.20
2016,08,21,13,07,17.70
2016,08,21,13,08,16.10
2016,08,21,13,09,19.30
2016,08,21,13,10,22.50
2016,08,21,13,11,24.20
2016,08,21,13,12,32.20
2016,08,21,13,13,27.40
2016,08,21,13,14,24.20
2016,08,21,13,15,17.70
2016,08,21,13,16,20.90
2016,08,21,13,17,22.50
2016,08,21,13,18,20.90
2016,08,21,13,19,17.70
2016,08,21,13,20,22.50
2016,08,21,13,21,32.20
2016,08,21,13,22,27.40
2016,08,21,13,23,29.00
2016,08,21,13,24,27.40
2016,08,21,13,25,16.10
2016,08,21,13,26,17.70
2016,08,21,13,27,8.10
2016,08,21,13,28,27.40
2016,08,21,13,29,20.90
2016,08,21,13,30,22.50
2016,08,21,13,31,19.30
2016,08,21,13,32,25.70
2016,08,21,13,33,24.20
2016,08,21,13,34,20.90
2016,08,21,13,35,6.40
2016,08,21,13,36,24.20
2016,08,21,13,37,24.20
2016,08,21,13,38,17.70
2016,08,21,13,39,20.90
2016,08,21,13,40,20.90
2016,08,21,13,41,12.90
2016,08,21,13,42,22.50
2016,08,21,13,43,25.70
2016,08,21,13,44,22.50
2016,08,21,13,45,17.70
2016,08,21,13,46,19.30
2016,08,21,13,47,22.50
2016,08,21,13,48,20.90
2016,08,21,13,49,22.50
2016,08,21,13,50,17.70
2016,08,21,13,51,27.40
2016,08,21,13,52,29.00
2016,08,21,13,53,22.50
2016,08,21,13,54,22.50
2016,08,21,13,55,14.50
2016,08,21,13,56,14.50
2016,08,21,13,57,19.30
2016,08,21,13,58,16.10
2016,08,21,13,59,22.50
2016,08,21,14,00,19.30
2016,08,21,14,01,24.20
2016,08,21,14,02,22.50
2016,08,21,14,03,22.50
2016,08,21,14,04,22.50
2016,08,21,14,05,40.20
2016,08,21,14,06,25.70
2016,08,21,14,07,38.60
2016,08,21,14,08,24.20
2016,08,21,14,09,19.30
2016,08,21,14,10,20.90
2016,08,21,14,11,22.50
2016,08,21,14,12,20.90
2016,08,21,14,13,22.50
2016,08,21,14,14,32.20
2016,08,21,14,15,25.70
2016,08,21,14,16,25.70
2016,08,21,14,17,27.40
2016,08,21,14,18,24.20
2016,08,21,14,19,25.70
2016,08,21,14,20,35.40
2016,08,21,14,21,25.70
2016,08,21,14,22,24.20
2016,08,21,14,23,20.90
2016,08,21,14,24,22.50
2016,08,21,14,25,22.50
2016,08,21,14,26,27.40
2016,08,21,14,27,29.00
2016,08,21,14,28,29.00
2016,08,21,14,29,29.00
2016,08,21,14,30,22.50
2016,08,21,14,31,27.40
2016,08,21,14,32,25.70
2016,08,21,14,33,29.00
2016,08,21,14,34,27.40
2016,08,21,14,35,22.50
2016,08,21,14,36,25.70
2016,08,21,14,37,14.50
2016,08,21,14,38,16.10
2016,08,21,14,39,22.50
2016,08,21,14,40,20.90
2016,08,21,14,41,22.50
2016,08,21,14,42,24.20
2016,08,21,14,43,24.20
2016,08,21,14,44,20.90
2016,08,21,14,45,22.50
2016,08,21,14,46,22.50
2016,08,21,14,47,17.70
2016,08,21,14,48,25.70
2016,08,21,14,49,20.90
2016,08,21,14,50,22.50
2016,08,21,14,51,29.00
2016,08,21,14,52,37.00
2016,08,21,14,53,27.40
2016,08,21,14,54,19.30
2016,08,21,14,55,22.50
2016,08,21,14,56,29.00
2016,08,21,14,57,32.20
2016,08,21,14,58,29.00
2016,08,21,14,59,30.60
2016,08,21,15,00,32.20
2016,08,21,15,01,20.90
2016,08,21,15,02,24.20
2016,08,21,15,03,24.20
2016,08,21,15,04,37.00
2016,08,21,15,05,25.70
2016,08,21,15,06,29.00
2016,08,21,15,07,25.70
2016,08,21,15,08,32.20
2016,08,21,15,09,27.40
2016,08,21,15,10,41.80
2016,08,21,15,11,32.20
2016,08,21,15,12,20.90
2016,08,21,15,13,16.10
2016,08,21,15,14,30.60
2016,08,21,15,15,27.40
2016,08,21,15,16,29.00
2016,08,21,15,17,41.80
2016,08,21,15,18,37.00
2016,08,21,15,19,27.40
2016,08,21,15,20,27.40
2016,08,21,15,21,32.20
2016,08,21,15,22,35.40
2016,08,21,15,23,29.00
2016,08,21,15,24,20.90
2016,08,21,15,25,29.00
2016,08,21,15,26,29.00
2016,08,21,15,27,48.30
2016,08,21,15,28,46.70
2016,08,21,15,29,40.20
2016,08,21,15,30,32.20
2016,08,21,15,31,35.40
2016,08,21,15,32,43.50
2016,08,21,15,33,37.00
2016,08,21,15,34,38.60
2016,08,21,15,35,38.60
2016,08,21,15,36,27.40
2016,08,21,15,37,25.70
2016,08,21,15,38,35.40
2016,08,21,15,39,35.40
2016,08,21,15,40,32.20
2016,08,21,15,41,33.80
2016,08,21,15,42,20.90
2016,08,21,15,43,33.80
2016,08,21,15,44,27.40
2016,08,21,15,45,33.80
2016,08,21,15,46,35.40
2016,08,21,15,47,35.40
2016,08,21,15,48,30.60
2016,08,21,15,49,33.80
2016,08,21,15,50,29.00
2016,08,21,15,51,27.40
2016,08,21,15,52,19.30
2016,08,21,15,53,20.90
2016,08,21,15,54,19.30
2016,08,21,15,55,32.20
2016,08,21,15,56,33.80
2016,08,21,15,57,53.10
2016,08,21,15,58,45.10
2016,08,21,15,59,38.60
2016,08,21,16,00,25.70
2016,08,21,16,01,25.70
2016,08,21,16,02,35.40
2016,08,21,16,03,30.60
2016,08,21,16,04,27.40
2016,08,21,16,05,35.40
2016,08,21,16,06,38.60
2016,08,21,16,07,27.40
2016,08,21,16,08,24.20
2016,08,21,16,09,33.80
2016,08,21,16,10,46.70
2016,08,21,16,11,27.40
2016,08,21,16,12,25.70
2016,08,21,16,13,29.00
2016,08,21,16,14,37.00
2016,08,21,16,15,37.00
2016,08,21,16,16,32.20
2016,08,21,16,17,29.00
2016,08,21,16,18,30.60
2016,08,21,16,19,22.50
2016,08,21,16,20,29.00
2016,08,21,16,21,32.20
2016,08,21,16,22,29.00
2016,08,21,16,23,25.70
2016,08,21,16,24,17.70
2016,08,21,16,25,12.90
2016,08,21,16,26,27.40
2016,08,21,16,27,32.20
2016,08,21,16,28,33.80
2016,08,21,16,29,17.70
2016,08,21,16,30,16.10
2016,08,21,16,31,16.10
2016,08,21,16,32,24.20
2016,08,21,16,33,27.40
2016,08,21,16,34,25.70
2016,08,21,16,35,17.70
2016,08,21,16,36,32.20
2016,08,21,16,37,43.50
2016,08,21,16,38,35.40
2016,08,21,16,39,19.30
2016,08,21,16,40,25.70
2016,08,21,16,41,29.00
2016,08,21,16,42,27.40
2016,08,21,16,43,37.00
2016,08,21,16,44,29.00
2016,08,21,16,45,24.20
2016,08,21,16,46,22.50
2016,08,21,16,47,25.70
2016,08,21,16,48,32.20
2016,08,21,16,49,25.70
2016,08,21,16,50,22.50
2016,08,21,16,51,22.50
2016,08,21,16,52,14.50
2016,08,21,16,53,27.40
2016,08,21,16,54,20.90
2016,08,21,16,55,22.50
2016,08,21,16,56,25.70
2016,08,21,16,57,32.20
2016,08,21,16,58,35.40
2016,08,21,16,59,30.60
2016,08,21,17,00,27.40
2016,08,21,17,01,37.00
2016,08,21,17,02,32.20
2016,08,21,17,03,37.00
2016,08,21,17,04,30.60
2016,08,21,17,05,24.20
2016,08,21,17,06,22.50
2016,08,21,17,07,30.60
2016,08,21,17,08,30.60
2016,08,21,17,09,32.20
2016,08,21,17,10,33.80
2016,08,21,17,11,40.20
2016,08,21,17,12,30.60
2016,08,21,17,13,22.50
2016,08,21,17,14,29.00
2016,08,21,17,15,32.20
2016,08,21,17,16,30.60
2016,08,21,17,17,25.70
2016,08,21,17,18,30.60
2016,08,21,17,19,30.60
2016,08,21,17,20,32.20
2016,08,21,17,21,35.40
2016,08,21,17,22,32.20
2016,08,21,17,23,22.50
2016,08,21,17,24,19.30
2016,08,21,17,25,24.20
2016,08,21,17,26,17.70
2016,08,21,17,27,29.00
2016,08,21,17,28,6.40
2016,08,21,17,29,30.60
2016,08,21,17,30,40.20
2016,08,21,17,31,29.00
2016,08,21,17,32,29.00
2016,08,21,17,33,14.50
2016,08,21,17,34,33.80
2016,08,21,17,35,38.60
2016,08,21,17,36,41.80
2016,08,21,17,37,32.20
2016,08,21,17,38,37.00
2016,08,21,17,39,32.20
2016,08,21,17,40,33.80
2016,08,21,17,41,32.20
2016,08,21,17,42,32.20
2016,08,21,17,43,29.00
2016,08,21,17,44,41.80
2016,08,21,17,45,11.30
2016,08,21,17,46,46.70
2016,08,21,17,47,29.00
2016,08,21,17,48,24.20
2016,08,21,17,49,37.00
2016,08,21,17,50,16.10
2016,08,21,17,51,22.50
2016,08,21,17,52,32.20
2016,08,21,17,53,20.90
2016,08,21,17,54,27.40
2016,08,21,17,55,29.00
2016,08,21,17,56,25.70
2016,08,21,17,57,25.70
2016,08,21,17,58,37.00
2016,08,21,17,59,37.00
2016,08,21,18,00,29.00
2016,08,21,18,01,35.40
2016,08,21,18,02,30.60
2016,08,21,18,03,33.80
2016,08,21,18,04,30.60
2016,08,21,18,05,27.40
2016,08,21,18,06,27.40
2016,08,21,18,07,40.20
2016,08,21,18,08,25.70
2016,08,21,18,09,38.60
2016,08,21,18,10,29.00
2016,08,21,18,11,25.70
2016,08,21,18,12,30.60
2016,08,21,18,13,25.70
2016,08,21,18,14,24.20
2016,08,21,18,15,24.20
2016,08,21,18,16,20.90
2016,08,21,18,17,22.50
2016,08,21,18,18,29.00
2016,08,21,18,19,35.40
2016,08,21,18,20,24.20
2016,08,21,18,21,22.50
2016,08,21,18,22,25.70
2016,08,21,18,23,17.70
2016,08,21,18,24,27.40
2016,08,21,18,25,33.80
2016,08,21,18,26,25.70
2016,08,21,18,27,22.50
2016,08,21,18,28,29.00
2016,08,21,18,29,32.20
2016,08,21,18,30,41.80
2016,08,21,18,31,29.00
2016,08,21,18,32,37.00
2016,08,21,18,33,22.50
2016,08,21,18,34,19.30
2016,08,21,18,35,33.80
2016,08,21,18,36,25.70
2016,08,21,18,37,29.00
2016,08,21,18,38,32.20
2016,08,21,18,39,30.60
2016,08,21,18,40,20.90
2016,08,21,18,41,19.30
2016,08,21,18,42,25.70
2016,08,21,18,43,24.20
2016,08,21,18,44,17.70
2016,08,21,18,45,27.40
2016,08,21,18,46,45.10
2016,08,21,18,47,32.20
2016,08,21,18,48,30.60
2016,08,21,18,49,22.50
2016,08,21,18,50,37.00
2016,08,21,18,51,32.20
2016,08,21,18,52,27.40
2016,08,21,18,53,33.80
2016,08,21,18,54,25.70
2016,08,21,18,55,25.70
2016,08,21,18,56,41.80
2016,08,21,18,57,29.00
2016,08,21,18,58,17.70
2016,08,21,18,59,29.00
2016,08,21,19,00,32.20
2016,08,21,19,01,32.20
2016,08,21,19,02,29.00
2016,08,21,19,03,32.20
2016,08,21,19,04,33.80
2016,08,21,19,05,27.40
2016,08,21,19,06,24.20
2016,08,21,19,07,24.20
2016,08,21,19,08,30.60
2016,08,21,19,09,27.40
2016,08,21,19,10,32.20
2016,08,21,19,11,22.50
2016,08,21,19,12,25.70
2016,08,21,19,13,22.50
2016,08,21,19,14,24.20
2016,08,21,19,15,32.20
2016,08,21,19,16,30.60
2016,08,21,19,17,22.50
2016,08,21,19,18,25.70
2016,08,21,19,19,30.60
2016,08,21,19,20,20.90
2016,08,21,19,21,29.00
2016,08,21,19,22,25.70
2016,08,21,19,23,27.40
2016,08,21,19,24,11.30
2016,08,21,19,25,19.30
2016,08,21,19,26,16.10
2016,08,21,19,27,20.90
2016,08,21,19,28,25.70
2016,08,21,19,29,32.20
2016,08,21,19,30,20.90
2016,08,21,19,31,30.60
2016,08,21,19,32,24.20
2016,08,21,19,33,19.30
2016,08,21,19,34,14.50
2016,08,21,19,35,14.50
2016,08,21,19,36,29.00
2016,08,21,19,37,30.60
2016,08,21,19,38,22.50
2016,08,21,19,39,35.40
2016,08,21,19,40,16.10
2016,08,21,19,41,16.10
2016,08,21,19,42,22.50
2016,08,21,19,43,22.50
2016,08,21,19,44,29.00
2016,08,21,19,45,17.70
2016,08,21,19,46,16.10
2016,08,21,19,47,16.10
2016,08,21,19,48,22.50
2016,08,21,19,49,17.70
2016,08,21,19,50,29.00
2016,08,21,19,51,32.20
2016,08,21,19,52,29.00
2016,08,21,19,53,22.50
2016,08,21,19,54,17.70
2016,08,21,19,55,11.30
2016,08,21,19,56,14.50
2016,08,21,19,57,14.50
2016,08,21,19,58,20.90
2016,08,21,19,59,25.70
2016,08,21,20,00,27.40
2016,08,21,20,01,20.90
2016,08,21,20,02,24.20
2016,08,21,20,03,17.70
2016,08,21,20,04,9.60
2016,08,21,20,05,27.40
2016,08,21,20,06,16.10
2016,08,21,20,07,9.60
2016,08,21,20,08,27.40
2016,08,21,20,09,24.20
2016,08,21,20,10,20.90
2016,08,21,20,11,20.90
2016,08,21,20,12,24.20
2016,08,21,20,13,17.70
2016,08,21,20,14,22.50
2016,08,21,20,15,19.30
2016,08,21,20,16,19.30
2016,08,21,20,17,30.60
2016,08,21,20,18,22.50
2016,08,21,20,19,25.70
2016,08,21,20,20,24.20
2016,08,21,20,21,22.50
2016,08,21,20,22,16.10
2016,08,21,20,23,16.10
2016,08,21,20,24,22.50
2016,08,21,20,25,20.90
2016,08,21,20,26,22.50
2016,08,21,20,27,22.50
2016,08,21,20,28,19.30
2016,08,21,20,29,20.90
2016,08,21,20,30,22.50
2016,08,21,20,31,30.60
2016,08,21,20,32,20.90
2016,08,21,20,33,24.20
2016,08,21,20,34,32.20
2016,08,21,20,35,29.00
2016,08,21,20,36,19.30
2016,08,21,20,37,20.90
2016,08,21,20,38,20.90
2016,08,21,20,39,19.30
2016,08,21,20,40,19.30
2016,08,21,20,41,17.70
2016,08,21,20,42,24.20
2016,08,21,20,43,20.90
2016,08,21,20,44,22.50
2016,08,21,20,45,29.00
2016,08,21,20,46,19.30
2016,08,21,20,47,25.70
2016,08,21,20,48,20.90
2016,08,21,20,49,16.10
2016,08,21,20,50,25.70
2016,08,21,20,51,19.30
2016,08,21,20,52,11.30
2016,08,21,20,53,12.90
2016,08,21,20,54,17.70
2016,08,21,20,55,25.70
2016,08,21,20,56,16.10
2016,08,21,20,57,16.10
2016,08,21,20,58,11.30
2016,08,21,20,59,9.60
2016,08,21,21,00,20.90
2016,08,21,21,01,19.30
2016,08,21,21,02,22.50
2016,08,21,21,03,9.60
2016,08,21,21,04,19.30
2016,08,21,21,05,19.30
2016,08,21,21,06,9.60
2016,08,21,21,07,14.50
2016,08,21,21,08,14.50
2016,08,21,21,09,19.30
2016,08,21,21,10,17.70
2016,08,21,21,11,17.70
2016,08,21,21,12,24.20
2016,08,21,21,13,25.70
2016,08,21,21,14,20.90
2016,08,21,21,15,14.50
2016,08,21,21,16,16.10
2016,08,21,21,17,16.10
2016,08,21,21,18,19.30
2016,08,21,21,19,16.10
2016,08,21,21,20,14.50
2016,08,21,21,21,20.90
2016,08,21,21,22,16.10
2016,08,21,21,23,17.70
2016,08,21,21,24,16.10
2016,08,21,21,25,30.60
2016,08,21,21,26,29.00
2016,08,21,21,27,29.00
2016,08,21,21,28,24.20
2016,08,21,21,29,16.10
2016,08,21,21,30,16.10
2016,08,21,21,31,16.10
2016,08,21,21,32,16.10
2016,08,21,21,33,19.30
2016,08,21,21,34,17.70
2016,08,21,21,35,19.30
2016,08,21,21,36,16.10
2016,08,21,21,37,17.70
2016,08,21,21,38,27.40
2016,08,21,21,39,17.70
2016,08,21,21,40,16.10
2016,08,21,21,41,20.90
2016,08,21,21,42,17.70
2016,08,21,21,43,19.30
2016,08,21,21,44,19.30
2016,08,21,21,45,19.30
2016,08,21,21,46,19.30
2016,08,21,21,47,17.70
2016,08,21,21,48,16.10
2016,08,21,21,49,16.10
2016,08,21,21,50,14.50
2016,08,21,21,51,16.10
2016,08,21,21,52,17.70
2016,08,21,21,53,16.10
2016,08,21,21,54,14.50
2016,08,21,21,55,20.90
2016,08,21,21,56,17.70
2016,08,21,21,57,9.60
2016,08,21,21,58,11.30
2016,08,21,21,59,14.50
2016,08,21,22,00,14.50
2016,08,21,22,01,11.30
2016,08,21,22,02,11.30
2016,08,21,22,03,12.90
2016,08,21,22,04,19.30
2016,08,21,22,05,20.90
2016,08,21,22,06,19.30
2016,08,21,22,07,29.00
2016,08,21,22,08,8.10
2016,08,21,22,09,14.50